Location: Ferintosh
(52.7647°N, 112.9692°W)
Time: 19:24:41
(UTC+00:00)

A-11 Canister half - Pass Details

Date: 26 May 2024
Orbit: 1515 x 1685 km, 47.2° (Epoch: 12 June)

Event Time Altitude Azimuth Distance (km) Brightness Sun altitude
Rises 13:38:19 0° 280° (W) 4,710 11.0 18.2°
Reaches altitude 10° 13:41:32 10° 275° (W) 3,709 10.5 18.6°
Maximum altitude 13:50:13 46° 206° (SSW) 1,949 9.6 19.9°
Drops below altitude 10° 13:58:49 10° 137° (SE) 3,673 11.6 21.2°
Sets 14:02:00 0° 132° (SE) 4,661 12.1 21.7°
